• en Suisse
  • Liste des pays
  • À 7 jours
  • Température de l'eau
  • Carte satellitaire
  • Carte météo
  • Widgets météo
  • user-avatar
    Se connecter

    Météo par heure à Fedosovo

    Ce jour, 16 Août, Jeudi

    Heure Température Précipitation Vent Pression Humidité
    00:00 +17°C° 0 mm 3 m/s 741 mmHg 97%
    01:00 +16°C° 0 mm 2 m/s 742 mmHg 98%
    02:00 +16°C° 0 mm 2 m/s 742 mmHg 97%
    03:00 +16°C° 0 mm 2 m/s 742 mmHg 97%
    04:00 +15°C° 0 mm 2 m/s 743 mmHg 98%
    05:00 +15°C° 0 mm 2 m/s 743 mmHg 98%
    06:00 +16°C° 0 mm 2 m/s 744 mmHg 96%
    07:00 +16°C° 0 mm 2 m/s 744 mmHg 94%
    08:00 +17°C° 0 mm 2 m/s 745 mmHg 91%
    09:00 +17°C° 0,1 mm 2 m/s 745 mmHg 88%
    10:00 +18°C° 0,1 mm 2 m/s 745 mmHg 84%
    11:00 +18°C° 0,1 mm 2 m/s 746 mmHg 81%
    12:00 +19°C° 0 mm 2 m/s 746 mmHg 74%
    13:00 +21°C° 0 mm 2 m/s 746 mmHg 68%
    14:00 +23°C° 0 mm 2 m/s 746 mmHg 62%
    15:00 +21°C° 0 mm 2 m/s 747 mmHg 62%
    16:00 +21°C° 0 mm 2 m/s 747 mmHg 63%
    17:00 +21°C° 0 mm 2 m/s 747 mmHg 64%
    18:00 +19°C° 0 mm 2 m/s 747 mmHg 71%
    19:00 +18°C° 0 mm 2 m/s 748 mmHg 77%
    20:00 +16°C° 0 mm 1 m/s 748 mmHg 83%
    21:00 +15°C° 0 mm 1 m/s 748 mmHg 85%
    22:00 +14°C° 0 mm 1 m/s 748 mmHg 87%
    23:00 +14°C° 0 mm 1 m/s 749 mmHg 88%

    Demain, 17 Août, Vendredi

    Heure Température Précipitation Vent Pression Humidité
    00:00 +13°C° 0 mm 1 m/s 749 mmHg 89%
    01:00 +13°C° 0 mm 1 m/s 749 mmHg 90%
    02:00 +12°C° 0 mm 1 m/s 750 mmHg 90%
    03:00 +12°C° 0 mm 1 m/s 750 mmHg 90%
    04:00 +12°C° 0 mm 1 m/s 750 mmHg 90%
    05:00 +12°C° 0 mm 1 m/s 751 mmHg 90%
    06:00 +14°C° 0 mm 1 m/s 751 mmHg 81%
    07:00 +16°C° 0 mm 1 m/s 751 mmHg 73%
    08:00 +19°C° 0 mm 1 m/s 751 mmHg 64%
    09:00 +21°C° 0 mm 1 m/s 751 mmHg 58%
    10:00 +21°C° 0 mm 2 m/s 751 mmHg 52%
    11:00 +23°C° 0 mm 2 m/s 751 mmHg 46%
    12:00 +24°C° 0 mm 2 m/s 751 mmHg 44%
    13:00 +24°C° 0 mm 2 m/s 751 mmHg 43%
    14:00 +25°C° 0 mm 2 m/s 751 mmHg 41%
    15:00 +24°C° 0 mm 1 m/s 751 mmHg 45%
    16:00 +24°C° 0 mm 1 m/s 750 mmHg 50%
    17:00 +23°C° 0 mm 1 m/s 750 mmHg 54%
    18:00 +21°C° 0 mm 1 m/s 750 mmHg 60%
    19:00 +19°C° 0 mm 1 m/s 750 mmHg 65%
    20:00 +16°C° 0 mm 1 m/s 750 mmHg 71%
    21:00 +15°C° 0 mm 1 m/s 750 mmHg 73%
    22:00 +14°C° 0 mm 1 m/s 751 mmHg 76%
    23:00 +14°C° 0 mm 1 m/s 751 mmHg 78%

    Après-demain, 18 Août, Samedi

    Heure Température Précipitation Vent Pression Humidité
    00:00 +13°C° 0 mm 1 m/s 751 mmHg 80%
    01:00 +13°C° 0 mm 1 m/s 751 mmHg 81%
    02:00 +12°C° 0 mm 1 m/s 751 mmHg 82%
    03:00 +12°C° 0 mm 1 m/s 751 mmHg 83%
    04:00 +12°C° 0 mm 1 m/s 751 mmHg 84%
    05:00 +12°C° 0 mm 1 m/s 751 mmHg 84%
    06:00 +14°C° 0 mm 1 m/s 751 mmHg 77%
    07:00 +16°C° 0 mm 1 m/s 751 mmHg 70%
    08:00 +20°C° 0 mm 1 m/s 751 mmHg 63%
    09:00 +21°C° 0 mm 1 m/s 751 mmHg 58%
    10:00 +23°C° 0 mm 1 m/s 751 mmHg 52%
    11:00 +24°C° 0 mm 2 m/s 751 mmHg 47%
    12:00 +25°C° 0 mm 2 m/s 751 mmHg 45%
    13:00 +25°C° 0 mm 2 m/s 750 mmHg 43%
    14:00 +26°C° 0 mm 2 m/s 750 mmHg 42%
    15:00 +25°C° 0 mm 1 m/s 750 mmHg 46%
    16:00 +25°C° 0 mm 1 m/s 750 mmHg 50%
    17:00 +25°C° 0 mm 1 m/s 749 mmHg 55%
    18:00 +22°C° 0 mm 1 m/s 749 mmHg 60%
    19:00 +20°C° 0 mm 1 m/s 749 mmHg 66%
    20:00 +18°C° 0 mm 1 m/s 749 mmHg 72%
    21:00 +16°C° 0 mm 1 m/s 749 mmHg 75%
    22:00 +16°C° 0 mm 1 m/s 749 mmHg 77%
    23:00 +15°C° 0 mm 2 m/s 749 mmHg 80%

    19 Août, Dimanche

    Heure Température Précipitation Vent Pression Humidité
    00:00 +15°C° 0 mm 2 m/s 749 mmHg 83%
    01:00 +15°C° 0 mm 2 m/s 749 mmHg 85%
    02:00 +14°C° 0 mm 2 m/s 749 mmHg 88%
    03:00 +14°C° 0 mm 2 m/s 749 mmHg 89%
    04:00 +14°C° 0 mm 2 m/s 749 mmHg 89%
    05:00 +14°C° 0 mm 2 m/s 749 mmHg 90%
    06:00 +16°C° 0 mm 2 m/s 749 mmHg 83%
    07:00 +18°C° 0 mm 2 m/s 749 mmHg 75%
    08:00 +20°C° 0 mm 3 m/s 749 mmHg 68%
    09:00 +21°C° 0 mm 3 m/s 748 mmHg 62%
    10:00 +23°C° 0 mm 4 m/s 748 mmHg 56%
    11:00 +25°C° 0 mm 4 m/s 748 mmHg 51%
    12:00 +25°C° 0 mm 4 m/s 747 mmHg 50%
    13:00 +26°C° 0 mm 4 m/s 747 mmHg 49%
    14:00 +26°C° 0 mm 4 m/s 746 mmHg 48%
    15:00 +26°C° 0 mm 4 m/s 746 mmHg 51%
    16:00 +25°C° 0 mm 4 m/s 745 mmHg 55%
    17:00 +25°C° 0 mm 3 m/s 745 mmHg 59%
    18:00 +22°C° 0 mm 3 m/s 745 mmHg 63%
    19:00 +21°C° 0 mm 4 m/s 745 mmHg 67%
    20:00 +20°C° 0 mm 4 m/s 745 mmHg 71%
    21:00 +19°C° 0 mm 4 m/s 744 mmHg 75%
    22:00 +19°C° 0 mm 3 m/s 744 mmHg 79%
    23:00 +18°C° 0 mm 3 m/s 744 mmHg 83%

    20 Août, Lundi

    Heure Température Précipitation Vent Pression Humidité
    00:00 +17°C° 0 mm 3 m/s 744 mmHg 86%
    01:00 +17°C° 0 mm 3 m/s 744 mmHg 90%
    02:00 +16°C° 0 mm 2 m/s 744 mmHg 94%
    03:00 +16°C° 0,1 mm 2 m/s 744 mmHg 95%
    04:00 +16°C° 0,1 mm 2 m/s 744 mmHg 96%
    05:00 +16°C° 0,1 mm 1 m/s 744 mmHg 97%
    06:00 +18°C° 0 mm 1 m/s 745 mmHg 92%
    07:00 +19°C° 0 mm 1 m/s 745 mmHg 87%
    08:00 +21°C° 0 mm 1 m/s 745 mmHg 82%
    09:00 +20°C° 0,1 mm 2 m/s 745 mmHg 79%
    10:00 +21°C° 0,1 mm 2 m/s 745 mmHg 76%
    11:00 +21°C° 0,1 mm 2 m/s 745 mmHg 73%
    12:00 +21°C° 0,1 mm 2 m/s 745 mmHg 73%
    13:00 +21°C° 0,1 mm 2 m/s 745 mmHg 73%
    14:00 +21°C° 0,1 mm 2 m/s 745 mmHg 72%
    15:00 +21°C° 0 mm 2 m/s 745 mmHg 73%
    16:00 +20°C° 0 mm 2 m/s 745 mmHg 74%
    17:00 +21°C° 0 mm 1 m/s 745 mmHg 74%
    18:00 +20°C° 0 mm 1 m/s 745 mmHg 80%
    19:00 +19°C° 0 mm 1 m/s 745 mmHg 85%
    20:00 +16°C° 0 mm 1 m/s 745 mmHg 91%
    21:00 +16°C° 0 mm 1 m/s 745 mmHg 92%
    22:00 +15°C° 0 mm 1 m/s 745 mmHg 93%
    23:00 +15°C° 0 mm 1 m/s 745 mmHg 94%

    21 Août, Mardi

    Heure Température Précipitation Vent Pression Humidité
    00:00 +15°C° 0 mm 1 m/s 745 mmHg 93%
    01:00 +14°C° 0 mm 0 m/s 745 mmHg 93%
    02:00 +14°C° 0 mm 0 m/s 745 mmHg 92%
    03:00 +14°C° 0 mm 0 m/s 745 mmHg 92%
    04:00 +14°C° 0 mm 0 m/s 745 mmHg 91%
    05:00 +14°C° 0 mm 0 m/s 745 mmHg 90%
    06:00 +15°C° 0 mm 0 m/s 745 mmHg 84%
    07:00 +17°C° 0 mm 0 m/s 746 mmHg 78%
    08:00 +19°C° 0 mm 0 m/s 746 mmHg 72%
    09:00 +20°C° 0,1 mm 0 m/s 746 mmHg 67%
    10:00 +23°C° 0,1 mm 1 m/s 746 mmHg 61%
    11:00 +25°C° 0,1 mm 1 m/s 746 mmHg 56%
    12:00 +25°C° 0 mm 1 m/s 745 mmHg 54%
    13:00 +25°C° 0 mm 2 m/s 745 mmHg 51%
    14:00 +25°C° 0 mm 2 m/s 745 mmHg 49%
    15:00 +25°C° 0 mm 2 m/s 745 mmHg 53%
    16:00 +24°C° 0 mm 2 m/s 744 mmHg 56%
    17:00 +24°C° 0 mm 1 m/s 744 mmHg 60%
    18:00 +21°C° 0 mm 2 m/s 744 mmHg 65%
    19:00 +19°C° 0 mm 2 m/s 744 mmHg 71%
    20:00 +18°C° 0 mm 2 m/s 744 mmHg 76%
    21:00 +17°C° 0 mm 2 m/s 744 mmHg 78%
    22:00 +17°C° 0 mm 2 m/s 744 mmHg 81%
    23:00 +17°C° 0 mm 2 m/s 744 mmHg 83%
    Voir plus